2024-159B

Last updated on Thu Sep 19 2024 00:02:04 GMT+0000 (Coordinated Universal Time)

1 61012U 24159B 24261.73177479 -.00000252 00000+0 78500-6 0 9996 2 61012 50.0004 183.5064 0013149 71.6964 288.5431 14.97653034 13
UTC large
Height (km)
Speed (km/s)
/
Latitude / Longitude
Inclination (degrees)
Orbital Period (minutes)
Azimuth
Elevation
Range (km)
Doppler Factor

Next 0 passes for location: London (51.5072 / 0.1276)

Sorry there are no passes over London.